Theta_e
292 288 285 288 288 285 285 284 284 285 290 289 289 289 291 293 291 292 292 292 292 293 296 296 297 298 306 310 315 321 325 328 329 329 329 329 327 328 328 326 323 323 321 317
289 284 289 290 288 287 285 284 283 286 289 289 287 288 289 291 292 293 294 293 293 292 292 295 296 295 297 305 312 317 323 326 328 330 330 330 330 329 329 329 324 323 322 319
285 287 291 289 286 286 284 283 283 285 286 285 284 283 285 288 289 291 293 294 294 293 294 294 294 294 294 296 304 313 319 324 327 330 330 318 322 319 326 327 325 322 322 320
287 290 289 287 286 287 282 288 287 286 284 280 283 277 282 286 288 289 292 291 291 291 292 294 294 294 293 295 298 308 316 322 326 328 326 325 326 324 325 326 326 323 322 321
286 288 287 286 287 289 286 288 286 285 281 281 280 279 281 283 285 289 290 291 291 292 291 293 294 295 295 295 296 303 312 319 323 325 324 324 324 326 321 323 320 321 321 320
287 290 290 290 289 289 290 287 285 283 281 277 280 280 279 282 286 286 290 292 295 296 296 296 297 297 296 296 298 304 311 315 319 322 321 321 322 309 309 312 317 314 315 317
286 287 290 291 288 289 286 284 277 275 275 276 279 278 281 286 288 288 290 292 292 292 295 295 295 295 296 296 298 304 308 307 309 313 313 314 315 309 310 311 315 313 312 306
282 281 288 290 288 286 284 284 278 271 273 276 280 279 283 288 291 291 291 291 291 292 294 294 294 294 294 295 297 298 302 305 307 309 309 309 310 307 307 306 308 312 313 313
282 282 289 289 290 292 285 282 285 279 269 273 278 281 287 288 289 292 293 294 292 293 294 294 294 294 294 295 296 297 298 299 301 304 304 304 305 304 304 302 302 303 303 303
287 281 286 288 290 289 288 289 282 279 270 270 276 278 281 285 290 291 291 291 292 292 293 293 293 294 294 295 296 297 298 298 298 299 300 302 301 302 302 300 299 298 298 298
287 285 283 287 285 285 285 285 284 285 280 275 272 278 285 289 291 291 290 290 291 292 292 292 293 293 294 294 295 296 296 297 297 298 298 298 298 299 298 297 297 297 295 295
290 285 279 283 286 287 288 286 285 281 276 277 279 279 289 292 292 292 292 292 293 291 291 291 291 292 292 293 293 294 295 295 296 296 296 296 297 296 296 296 296 294 294 292
290 284 274 280 284 285 284 285 286 284 282 279 276 279 289 290 291 292 292 292 292 292 292 292 292 292 291 292 292 293 293 294 295 295 295 295 295 295 295 294 294 293 292 291
295 285 284 280 281 286 283 285 287 288 281 281 283 282 287 287 291 291 291 291 290 290 291 291 292 292 292 292 292 291 292 292 293 293 294 293 294 294 294 294 292 291 291 290
292 282 284 285 287 285 284 285 287 286 287 283 286 285 289 289 290 291 290 290 290 290 291 291 291 291 291 291 292 292 291 291 290 291 291 292 292 292 292 290 290 290 289 288
292 285 284 285 289 288 284 286 287 287 287 287 286 285 291 291 289 288 289 289 289 289 290 291 291 291 291 291 290 290 289 288 287 288 288 288 287 288 288 288 288 287 287 286
289 286 285 283 285 285 283 287 287 286 286 288 285 289 289 286 287 286 287 288 288 289 290 290 290 290 290 289 290 289 288 286 286 285 286 286 286 285 286 286 286 286 286 285
287 286 285 280 283 278 285 285 291 289 289 291 287 287 288 287 287 286 287 287 287 288 289 289 289 289 289 288 288 287 285 285 285 285 284 284 284 285 285 284 285 284 284 283
291 286 282 279 279 278 280 282 285 287 287 291 288 285 286 287 286 284 286 287 287 287 288 288 287 287 287 286 285 284 285 284 284 285 285 284 283 283 283 283 283 283 280 280
288 288 284 276 276 270 279 281 286 288 280 284 287 285 285 286 281 282 286 285 285 286 286 285 284 285 283 283 283 283 283 283 283 285 285 284 283 280 280 282 282 280 276 283
282 282 282 277 271 273 279 284 285 278 280 280 285 285 285 281 283 284 284 283 284 284 283 283 282 282 282 282 282 282 282 281 283 283 282 282 281 279 280 279 277 278 278 278
281 280 280 278 275 274 280 282 282 282 281 283 282 281 281 282 282 282 282 282 281 280 281 281 280 280 280 281 280 280 280 282 282 281 280 280 280 279 280 276 279 276 273 277
276 279 278 280 279 282 282 282 284 285 282 280 281 282 282 281 281 281 280 280 280 279 280 278 275 276 277 277 277 276 278 279 279 278 278 279 279 279 279 274 277 276 274 279
276 280 278 279 279 279 280 280 281 281 280 281 281 282 281 280 280 279 279 279 278 277 277 274 273 273 274 273 274 273 274 275 275 275 276 277 279 280 279 277 276 277 281 281
278 279 276 275 280 280 280 279 280 280 280 280 279 279 277 277 277 277 276 275 275 274 273 272 272 271 270 270 270 268 271 272 272 272 273 275 278 278 278 279 279 278 280 281
278 277 277 276 281 280 279 280 280 278 277 277 277 275 276 276 274 272 272 272 271 270 269 269 268 267 267 266 266 267 267 268 267 267 272 275 277 280 281 281 281 285 284 285
Wind_Speed
2 4 7 10 9 4 7 4 3 3 1 4 8 9 11 10 7 11 11 12 11 13 11 10 10 10 10 8 12 14 15 15 12 10 11 10 11 9 9 10 13 14 13 14
4 6 9 4 4 4 4 4 3 3 1 4 4 11 10 9 10 11 12 12 13 7 6 9 9 8 11 15 16 16 17 16 15 12 11 11 10 9 9 9 12 15 14 15
8 5 7 7 4 6 4 5 5 6 3 2 5 9 6 6 6 7 11 13 11 10 10 10 8 10 8 11 14 16 18 18 16 17 9 3 2 2 6 8 10 12 15 16
5 2 7 4 5 7 5 7 5 3 3 4 2 8 6 6 10 8 13 9 10 9 8 9 8 7 8 11 8 12 13 15 15 15 12 17 14 12 9 8 8 9 14 14
9 10 6 5 7 7 6 5 4 3 4 3 3 2 9 3 6 13 10 10 9 9 7 8 8 8 6 5 7 7 8 10 13 16 16 14 12 9 4 5 7 8 11 14
6 1 6 9 3 6 9 7 8 5 3 4 8 8 6 5 8 4 2 6 7 8 7 7 7 7 5 6 2 3 7 7 9 12 11 13 13 7 5 6 7 6 6 9
2 3 2 4 8 4 4 8 2 4 2 8 3 3 9 9 7 7 8 9 7 5 5 7 9 10 9 9 7 5 4 4 5 6 7 8 8 9 9 9 8 8 6 4
9 5 9 5 8 10 8 9 8 10 6 4 2 8 8 5 5 6 4 8 9 9 7 8 8 8 8 9 9 7 4 3 4 5 6 5 5 4 4 6 5 6 6 7
8 6 1 3 5 13 6 8 7 7 3 4 5 7 11 3 4 9 9 11 9 9 8 8 8 7 7 7 6 5 5 3 2 2 3 3 4 5 5 6 5 4 4 4
7 3 1 3 4 1 7 10 5 2 4 4 4 5 7 3 5 8 8 8 7 6 9 8 7 7 6 6 5 7 6 5 4 2 1 3 5 6 5 5 6 6 5 6
6 5 1 5 9 10 4 4 2 6 6 7 1 8 7 8 8 8 3 2 6 8 9 7 7 7 7 5 7 6 6 7 5 4 2 2 3 4 3 4 6 7 5 6
8 6 5 10 4 5 6 11 8 8 6 3 4 8 2 7 9 8 6 5 7 8 7 7 7 7 8 8 8 7 6 5 4 4 3 4 3 3 4 6 6 6 7 6
11 5 4 4 4 1 6 4 5 5 4 8 7 7 1 4 6 5 7 7 8 8 8 7 9 9 8 8 7 8 8 8 7 6 6 6 6 5 6 7 6 6 7 7
12 4 16 17 8 10 7 8 9 14 6 6 17 6 7 7 7 4 6 8 7 7 7 7 8 7 7 7 7 6 6 6 6 6 6 5 7 7 7 7 6 6 7 7
5 7 4 2 5 4 7 10 19 18 20 13 16 13 15 10 7 5 6 6 7 7 8 7 6 7 8 8 8 9 9 8 8 7 6 6 6 6 6 7 7 7 6 6
1 5 3 4 3 2 2 5 15 23 16 17 5 3 5 6 7 6 7 6 7 7 8 8 7 7 8 8 8 8 9 10 8 10 10 8 7 7 6 7 7 6 7 6
6 6 5 9 6 5 6 20 14 6 5 13 13 11 9 6 8 7 7 8 7 7 6 6 7 6 7 7 7 9 9 7 9 8 8 7 7 7 7 7 7 7 7 6
9 8 4 4 10 11 7 3 15 19 6 10 3 5 8 13 9 7 5 7 7 6 6 6 6 6 7 6 8 7 7 7 7 7 7 7 8 9 8 7 7 7 5 6
7 6 3 6 5 3 3 5 9 13 15 17 10 7 11 13 8 6 5 5 6 5 5 4 4 4 6 7 7 7 7 7 7 8 9 9 7 9 9 9 8 6 4 5
4 4 5 4 6 9 6 2 5 5 7 5 13 13 13 10 5 4 4 4 6 6 3 5 5 3 4 7 6 7 8 7 8 10 11 10 8 6 8 8 9 4 4 7
4 3 8 5 3 8 6 5 4 8 8 3 8 10 11 5 3 7 6 5 4 4 6 6 6 6 6 6 6 7 7 7 9 10 10 10 9 8 8 7 4 5 6 6
6 6 4 3 4 9 6 3 10 5 4 10 10 7 11 9 8 6 6 6 6 6 6 6 6 8 8 6 6 9 9 10 10 10 10 11 9 8 7 7 9 7 5 6
3 6 7 7 5 2 3 3 3 2 15 6 9 7 7 7 5 5 4 5 5 6 5 4 6 7 6 4 4 10 11 13 13 13 13 12 11 9 8 6 9 6 4 6
3 3 4 4 2 3 5 4 8 6 9 8 7 8 6 7 5 4 3 3 3 4 5 6 7 7 8 4 8 6 12 12 12 13 14 13 13 12 9 5 5 6 7 7
4 6 6 3 5 7 4 3 7 8 8 10 8 6 7 6 5 4 3 2 4 5 5 7 8 10 12 10 9 6 10 11 12 13 13 13 11 11 11 9 8 7 8 9
5 7 6 6 12 4 8 6 7 8 6 5 6 5 6 6 5 3 2 2 3 6 8 8 9 11 12 12 11 8 7 7 12 13 10 11 13 12 11 10 10 13 19 20
Wind_Direction
57 121 193 193 196 154 139 154 183 247 200 166 225 260 265 284 303 276 260 263 257 248 258 236 237 210 203 199 198 200 194 199 184 189 192 194 202 194 195 192 191 182 182 180
64 219 215 126 121 131 134 140 233 288 333 170 297 270 267 267 256 242 264 264 258 266 274 270 254 220 202 209 204 202 202 195 195 195 199 202 202 203 200 194 190 184 184 184
159 232 140 144 150 151 186 172 209 214 7 359 355 290 265 280 263 269 258 253 266 252 266 272 259 233 211 211 202 202 200 197 196 198 182 87 104 69 191 203 191 191 187 188
210 189 137 154 183 143 196 199 174 169 87 238 29 285 299 271 289 291 271 270 272 264 251 261 270 260 232 232 212 205 201 198 197 184 182 194 202 203 203 197 200 187 186 182
229 167 152 179 197 165 209 125 126 79 97 24 329 357 273 295 279 263 282 280 289 294 275 290 295 279 262 240 211 202 189 190 184 185 189 193 203 215 180 177 172 182 187 187
181 171 164 180 112 147 153 77 50 59 74 297 194 172 269 221 216 284 295 330 335 0 356 351 352 8 8 9 7 176 174 183 177 184 184 192 199 163 159 174 184 180 190 195
129 208 179 142 93 48 96 93 358 350 12 231 107 144 244 265 257 234 284 324 335 304 309 359 12 23 18 18 21 34 75 71 106 144 158 177 189 170 180 180 190 185 191 183
162 228 163 182 167 161 188 156 164 196 199 249 99 237 252 245 274 311 313 322 347 351 16 25 26 25 18 23 26 31 62 104 142 165 181 176 173 173 178 173 186 202 207 213
157 240 55 144 144 144 198 212 158 103 24 58 223 284 307 266 30 40 23 37 23 22 29 32 35 38 30 31 34 27 45 61 102 174 146 172 172 178 193 190 185 192 196 200
193 132 0 139 115 18 173 150 93 16 162 248 261 257 222 96 68 40 20 27 24 26 27 15 20 26 31 35 19 34 33 42 40 72 176 215 213 211 206 184 199 204 205 193
141 122 263 123 212 158 148 190 137 130 156 181 214 254 220 157 139 119 92 63 51 37 31 21 18 16 10 22 32 24 29 29 20 13 13 319 282 264 237 222 217 210 198 207
182 138 166 202 233 210 209 199 164 173 217 244 156 259 122 137 134 134 138 90 56 55 29 20 26 21 17 16 16 13 15 3 3 333 329 295 282 255 235 233 231 214 219 209
172 200 79 11 345 292 203 169 147 99 74 202 151 242 116 76 114 148 123 72 59 49 38 28 30 31 25 17 18 11 5 354 351 335 326 314 299 288 270 253 237 223 225 226
165 143 208 218 223 140 194 187 199 197 194 187 229 137 203 213 154 111 76 75 71 57 45 33 29 22 21 14 12 18 17 12 358 340 322 308 295 285 275 270 257 238 229 231
157 179 156 115 125 144 174 183 193 203 215 199 231 208 197 186 170 128 109 103 89 66 55 44 27 10 7 5 2 5 14 3 351 348 352 343 322 300 295 286 273 264 249 236
208 129 105 176 120 76 209 228 209 214 220 241 108 228 115 117 124 124 120 113 79 60 43 28 18 15 10 1 2 359 359 356 351 355 347 338 337 326 304 288 277 269 264 249
129 131 145 222 170 120 260 216 205 196 190 210 222 208 162 127 123 126 116 90 77 63 48 29 14 5 359 359 354 358 345 338 352 346 338 336 334 327 318 305 299 281 264 241
151 144 161 146 138 211 256 110 196 207 196 208 109 143 155 136 118 101 75 99 85 70 49 30 9 359 2 353 355 340 341 345 338 333 329 334 338 332 325 319 301 288 270 250
164 142 136 158 223 291 260 199 156 172 234 213 152 140 126 135 114 78 88 86 87 78 56 41 10 344 348 354 343 341 342 341 338 338 333 330 330 323 319 314 305 290 269 254
155 140 135 166 168 202 230 200 143 113 276 133 140 155 155 152 140 155 125 102 79 72 55 22 349 333 353 345 343 345 340 341 341 334 321 313 307 292 298 297 299 276 240 268
148 155 197 143 203 286 234 184 168 145 229 158 125 131 141 126 125 141 120 85 76 54 14 7 2 359 340 334 339 338 324 324 318 314 308 306 304 298 293 296 283 280 278 276
152 160 165 129 163 252 172 84 170 159 29 113 107 112 110 121 119 98 84 72 38 22 14 21 360 344 334 342 353 339 327 325 318 316 308 300 296 300 300 298 300 296 292 285
209 181 171 178 199 308 298 169 90 130 126 128 117 124 121 120 100 84 71 36 15 16 355 20 0 328 319 333 356 334 328 326 321 318 312 307 296 288 285 283 290 293 263 268
274 176 117 104 25 64 94 74 95 109 110 113 112 113 97 114 103 98 83 45 25 13 0 352 333 319 311 335 334 321 321 320 319 312 310 308 302 299 288 259 244 262 270 270
190 128 130 71 91 89 7 90 115 93 93 96 77 95 110 111 97 84 58 17 3 334 346 335 321 317 319 330 326 315 314 318 320 317 310 303 297 294 293 279 265 249 248 243
193 160 161 195 179 143 165 151 128 117 113 100 120 109 88 87 98 86 55 18 349 342 330 326 328 322 317 319 317 317 311 333 324 312 311 308 306 302 294 289 288 257 261 262